Lake Fork, ID

10:31 PM MDT on August 30, 2016 (GMT -0600)
McCall

Weather History for KMYL - September, 2014

Change the Weather History Date:

Monday, September 29, 2014

  Actual Average Record
Temperature  
Mean Temperature 49 °F 45 °F  
Max Temperature 51 °F 62 °F 84 °F (1952)
Min Temperature 46 °F 29 °F 15 °F (1999)
Degree Days  
Heating Degree Days 16 20  
Month to date heating degree days 232 416  
Since 1 July heating degree days 348 744  
Cooling Degree Days 0 0  
Month to date cooling degree days 0 0  
Year to date cooling degree days 185 25  
Moisture  
Dew Point 46 °F    
Average Humidity 84    
Maximum Humidity 93    
Minimum Humidity 74    
Precipitation  
Precipitation 0.31 in 0.04 in 1.46 in (2013)
Month to date precipitation 0.64 0.85  
Year to date precipitation 17.26 13.89  
Sea Level Pressure  
Sea Level Pressure 29.92 in    
Wind  
Wind Speed 4 mph (SE)    
Max Wind Speed 18 mph    
Max Gust Speed 24 mph    
Visibility 9 miles    
Events Rain    
T = Trace of Precipitation, MM = Missing Value Source: NWS Daily Summary

Daily Weather History Graph

Daily Weather History Graph

Search for Another Location

Airport or City:

Trip Planner

Search our weather history database for the weather conditions in past years. The results will help you decide how hot, cold, wet, or windy it might be!

Date:

Astronomy

Sep. 29, 2014 Rise Set
Actual Time 7:40 AM MDT 7:28 PM MDT
Civil Twilight 7:10 AM MDT 7:57 PM MDT
Nautical Twilight 6:36 AM MDT 8:31 PM MDT
Astronomical Twilight 6:02 AM MDT 9:06 PM MDT
Moon 1:07 PM MDT (9/29) 10:55 PM MDT (9/29)
Length of Visible Light 12h 46m
Length of Day
11h 48m
Waxing Crescent, 28% of the Moon is Illuminated
Sep 29
Waxing Crescent
Oct 1
First Quarter
Oct 8
Full
Oct 15
Last Quarter
Oct 23
New

Hourly Weather History & Observations

Time (MDT) Temp. Windchill Dew Point Humidity Pressure Visibility Wind Dir Wind Speed Gust Speed Precip Events Conditions
12:38 AM 50.0 °F - 48.9 °F 96% 29.92 in 10.0 mi Calm Calm - 0.02 in Rain Light Rain
12:42 AM 50.0 °F - 48.9 °F 96% 29.92 in 10.0 mi Calm Calm - 0.02 in Rain Light Rain
12:49 AM 50.0 °F - 48.2 °F 94% 29.92 in 10.0 mi Calm Calm - 0.03 in Rain Light Rain
12:51 AM 50.0 °F - 48.9 °F 96% 29.84 in 10.0 mi Calm Calm - 0.03 in Rain Light Rain
1:13 AM 50.0 °F - 48.0 °F 93% 29.92 in 10.0 mi Calm Calm - 0.00 in Rain Light Rain
1:20 AM 50.0 °F - 48.0 °F 93% 29.92 in 10.0 mi Calm Calm - 0.00 in Rain Light Rain
1:51 AM 50.0 °F - 48.9 °F 96% 29.83 in 4.0 mi Calm Calm - 0.02 in Rain Light Rain
2:01 AM 50.0 °F - 48.0 °F 93% 29.92 in 5.0 mi Calm Calm - 0.01 in Rain Light Rain
2:22 AM 50.0 °F - 48.0 °F 93% 29.91 in 6.0 mi Calm Calm - 0.03 in Rain Light Rain
2:27 AM 50.0 °F - 48.0 °F 93% 29.91 in 8.0 mi Calm Calm - 0.03 in Rain Light Rain
2:40 AM 50.0 °F - 48.9 °F 96% 29.92 in 10.0 mi South 4.6 mph - 0.03 in Rain Light Rain
2:51 AM 50.0 °F - 48.9 °F 96% 29.83 in 9.0 mi South 5.8 mph - 0.03 in Rain Light Rain
3:31 AM 48.9 °F - 48.0 °F 97% 29.92 in 7.0 mi South 10.4 mph - 0.04 in Rain Light Rain
3:38 AM 48.9 °F - 46.9 °F 93% 29.93 in 6.0 mi SSE 13.8 mph - 0.05 in Rain Rain
3:51 AM 48.0 °F - 46.0 °F 93% 29.86 in 10.0 mi SSE 16.1 mph 23.0 mph 0.07 in Rain Light Rain
4:43 AM 46.9 °F - 45.0 °F 93% 29.94 in 10.0 mi SSE 12.7 mph - 0.08 in Rain Light Rain
4:51 AM 46.9 °F - 45.0 °F 93% 29.87 in 10.0 mi SSE 11.5 mph - 0.08 in Rain Light Rain
5:22 AM 46.9 °F - 44.1 °F 90% 29.93 in 10.0 mi SSE 9.2 mph - 0.00 in   Overcast
5:51 AM 46.9 °F - 44.1 °F 90% 29.87 in 10.0 mi South 6.9 mph - 0.00 in   Overcast
6:51 AM 46.0 °F - 44.1 °F 93% 29.89 in 9.0 mi Calm Calm - 0.00 in Rain Light Rain
7:51 AM 46.0 °F 43.1 °F 44.1 °F 93% 29.90 in 10.0 mi ESE 5.8 mph - 0.01 in   Overcast
8:51 AM 46.9 °F - 44.1 °F 90% 29.91 in 10.0 mi South 3.5 mph - N/A   Overcast
9:05 AM 46.9 °F - 44.1 °F 90% 29.95 in 10.0 mi Calm Calm - N/A   Overcast
9:51 AM 48.0 °F - 44.1 °F 86% 29.91 in 10.0 mi SE 4.6 mph - 0.01 in Rain Light Rain
10:51 AM 48.9 °F - 43.0 °F 80% 29.91 in 10.0 mi SE 3.5 mph - 0.01 in Rain Light Rain
11:51 AM 48.9 °F - 44.1 °F 83% 29.92 in 10.0 mi Calm Calm - 0.00 in Rain Light Rain
12:51 PM 50.0 °F - 42.1 °F 74% 29.92 in 10.0 mi ESE 5.8 mph - 0.00 in   Overcast
1:51 PM 50.0 °F - 43.0 °F 77% 29.92 in 10.0 mi South 3.5 mph - 0.00 in   Overcast
2:44 PM 50.0 °F - 44.1 °F 80% 29.96 in - North - - N/A   Unknown
2:51 PM 50.0 °F - 44.1 °F 80% 29.91 in - North - - N/A   Unknown
3:51 PM 48.9 °F - 46.9 °F 93% 29.91 in 10.0 mi NW 5.8 mph - N/A   Unknown
4:10 PM 48.9 °F - 46.9 °F 93% 29.96 in 10.0 mi NW 5.8 mph - 0.00 in Rain Light Rain
4:51 PM 48.0 °F - 46.0 °F 93% 29.93 in 6.0 mi WNW 4.6 mph - 0.03 in Rain Light Rain
5:40 PM 48.0 °F - 46.0 °F 93% 29.96 in 9.0 mi NNW 4.6 mph - 0.03 in Rain Light Rain
5:51 PM 48.0 °F - 46.0 °F 93% 29.93 in 9.0 mi NNW 3.5 mph - 0.03 in   Overcast
6:21 PM 48.0 °F - 46.0 °F 93% 29.96 in 10.0 mi ENE 4.6 mph - 0.00 in   Overcast
6:43 PM 48.2 °F - 46.4 °F 93% 29.96 in 10.0 mi North 3.5 mph - N/A   Overcast
6:51 PM 48.0 °F - 46.0 °F 93% 29.93 in 10.0 mi North 3.5 mph - 0.01 in Rain Light Rain
7:07 PM 48.0 °F - 46.0 °F 93% 29.96 in 10.0 mi NNE 3.5 mph - 0.01 in Rain Light Rain
7:51 PM 48.0 °F - 45.0 °F 89% 29.93 in 10.0 mi Calm Calm - 0.01 in   Overcast
8:08 PM 46.9 °F - 45.0 °F 93% 29.96 in 10.0 mi Calm Calm - N/A   Overcast
8:48 PM 46.4 °F - 46.4 °F 100% 29.96 in 10.0 mi Calm Calm - N/A   Overcast
8:51 PM 46.9 °F - 45.0 °F 93% 29.93 in 10.0 mi Calm Calm - N/A   Overcast
9:14 PM 46.9 °F - 45.0 °F 93% 29.96 in 10.0 mi Calm Calm - N/A   Scattered Clouds
9:34 PM 46.9 °F - 46.0 °F 97% 29.96 in 10.0 mi Calm Calm - N/A   Mostly Cloudy
9:51 PM 46.0 °F - 45.0 °F 96% 29.93 in 10.0 mi Calm Calm - N/A   Overcast
10:37 PM 46.0 °F - 45.0 °F 96% 29.96 in 10.0 mi Calm Calm - N/A   Mostly Cloudy
10:51 PM 46.0 °F - 45.0 °F 96% 29.93 in 2.0 mi Calm Calm - N/A   Mostly Cloudy
11:51 PM 46.9 °F - 45.0 °F 93% 29.93 in 10.0 mi Calm Calm - N/A   Overcast